Flag for U.S.A. Weather past 2 weeks in Alexandria, Virginia, U.S.A.

Now
73 °F

Passing clouds.


Feels Like: 75 °F
Forecast: 68 / 86 °F
Wind: 7 mph from Southeast

Location: Reagan National Airport

Current Time: Aug 20, 2014 at 5:59:49 AM

Latest Report: Aug 20, 2014 at 4:52 AM


Visibility: 10 mi

Pressure: 29.92 "Hg

Humidity: 69%

Dew point: 62 °F

Location of AlexandriaLocation

Historic Weather in Alexandria — Graph

°F

Alexandria temperature yesterday

Maximum temperature yesterday: 85 °F (at 2:52 PM)
Minimum temperature yesterday: 74 °F (at 3:52 AM)
Average temperature yesterday: 79 °F

Past Weeks' High & Low Weather Summary

 TemperatureHumidityPressure
High92 °F (Aug 5, 4:52 PM)89% (Aug 12, 10:59 AM)30.15 "Hg (Aug 12, 10:59 AM)
Low63 °F (Aug 15, 5:52 AM)27% (Aug 5, 5:52 PM)29.75 "Hg (Aug 13, 4:52 AM)
Average78 °F58%29.97 "Hg
* Reported Aug 5 4:52 AM — Aug 20 4:52 AM, Alexandria, Weather by CustomWeather, © 2014

Note: Actual official high and low records may vary slightly from our data, if they occured in-between our weather recording intervals... More about our weather records

Advertising

Alexandria weather history for previous 24 hours

 ConditionsComfort  
Time TempWeatherWind HumidityBarometerVisibility
4:52 AM
Aug 20
73 °FPassing clouds.7 mph69%29.92 "Hg10 mi
3:52 AM73 °FPassing clouds.3 mph71%29.92 "Hg10 mi
2:52 AM74 °FPassing clouds.3 mph71%29.92 "Hg10 mi
1:58 AM73 °FPartly cloudy.No wind74%29.93 "Hg10 mi
12:52 AM76 °FPassing clouds.6 mph72%29.93 "Hg10 mi
11:52 PM
Aug 19
77 °FPassing clouds.5 mph69%29.93 "Hg10 mi
10:52 PM79 °FPassing clouds.6 mph67%29.91 "Hg10 mi
9:52 PM80 °FPassing clouds.7 mph60%29.90 "Hg10 mi
8:52 PM80 °FPartly sunny.6 mph58%29.89 "Hg10 mi
7:52 PM81 °FBroken clouds.5 mph58%29.87 "Hg10 mi
6:52 PM83 °FPartly sunny.8 mph55%29.86 "Hg10 mi
5:52 PM85 °FBroken clouds.8 mph51%29.86 "Hg10 mi
4:52 PM85 °FBroken clouds.7 mph53%29.85 "Hg10 mi
3:52 PM85 °FBroken clouds.10 mph53%29.85 "Hg10 mi
2:52 PM85 °FBroken clouds.10 mph53%29.87 "Hg10 mi
1:52 PM82 °FBroken clouds.5 mph60%29.88 "Hg10 mi
12:52 PM79 °FCloudy.9 mph72%29.88 "Hg10 mi
11:52 AM78 °FCloudy.9 mph74%29.88 "Hg10 mi
10:52 AM77 °FLight rain. Overcast.8 mph74%29.88 "Hg10 mi
9:52 AM77 °FOvercast.8 mph71%29.87 "Hg10 mi
8:52 AM76 °FOvercast.6 mph74%29.85 "Hg10 mi
7:58 AM75 °FMostly cloudy.7 mph74%29.85 "Hg10 mi
6:52 AM74 °FPartly cloudy.8 mph76%29.83 "Hg10 mi
5:52 AM74 °FOvercast.7 mph76%29.83 "Hg10 mi
Weather by CustomWeather, © 2014

See weather overviewHow to use our weather pages